WI3X Weather Reports


Display with metric or nautical units.
time (UTC)temp
F
wind
direction
speed
MPH
gust
MPH
rain 1hr
in
rain 24hr
in
rain mn
in
humidity
%
barometer
mb
20260505225004 80 198 17.0 28.0 0.00 0.00 0.00 33 1006.7
20260505224004 80 199 15.0 23.0 0.00 0.00 0.00 33 1006.7
20260505223004 80 203 20.0 30.0 0.00 0.00 0.00 32 1006.7
20260505222004 81 202 18.0 31.0 0.00 0.00 0.00 33 1006.9
20260505221004 81 205 15.0 28.0 0.00 0.00 0.00 34 1006.9
20260505220004 81 203 14.0 24.0 0.00 0.00 0.00 35 1006.8
20260505215004 81 202 16.0 26.0 0.00 0.00 0.00 35 1006.8
20260505214004 81 200 18.0 30.0 0.00 0.00 0.00 35 1006.8
20260505213004 82 212 15.0 23.0 0.00 0.00 0.00 34 1006.8
20260505212005 82 198 19.0 32.0 0.00 0.00 0.00 33 1006.7
20260505211004 82 202 19.0 30.0 0.00 0.00 0.00 32 1006.6
20260505210004 82 201 19.0 31.0 0.00 0.00 0.00 33 1006.7
20260505205004 82 201 21.0 30.0 0.00 0.00 0.00 33 1006.8
20260505204004 82 205 19.0 30.0 0.00 0.00 0.00 33 1006.7
20260505203004 82 202 20.0 32.0 0.00 0.00 0.00 33 1006.8
20260505202004 82 199 20.0 29.0 0.00 0.00 0.00 34 1006.8
20260505201004 82 195 17.0 28.0 0.00 0.00 0.00 33 1006.9
20260505200004 82 205 18.0 35.0 0.00 0.00 0.00 36 1006.9
20260505195025 83 205 17.0 31.0 0.00 0.00 0.00 36 1007.2
20260505194004 83 220 15.0 24.0 0.00 0.00 0.00 36 1007.2
20260505193004 83 208 14.0 22.0 0.00 0.00 0.00 35 1007.2
20260505192004 83 206 17.0 28.0 0.00 0.00 0.00 35 1007.4
20260505191004 83 207 17.0 28.0 0.00 0.00 0.00 34 1007.4
20260505190005 83 206 18.0 28.0 0.00 0.00 0.00 36 1007.6
20260505185004 83 204 18.0 28.0 0.00 0.00 0.00 36 1007.8
20260505184004 82 203 18.0 27.0 0.00 0.00 0.00 37 1007.8
20260505183004 82 200 15.0 27.0 0.00 0.00 0.00 35 1007.8
20260505182004 82 200 17.0 26.0 0.00 0.00 0.00 37 1007.9
20260505181004 82 205 13.0 25.0 0.00 0.00 0.00 39 1008.2
20260505180004 81 199 20.0 28.0 0.00 0.00 0.00 37 1008.3
20260505175004 82 198 15.0 23.0 0.00 0.00 0.00 40 1008.2
20260505174004 81 203 14.0 25.0 0.00 0.00 0.00 39 1008.3
20260505173004 81 206 15.0 26.0 0.00 0.00 0.00 41 1008.4
20260505172004 81 206 13.0 25.0 0.00 0.00 0.00 41 1008.6
20260505171004 82 207 12.0 23.0 0.00 0.00 0.00 41 1008.6
20260505170004 81 206 17.0 26.0 0.00 0.00 0.00 39 1008.7
20260505165004 81 219 15.0 27.0 0.00 0.00 0.00 40 1008.9
20260505164004 81 226 13.0 24.0 0.00 0.00 0.00 42 1009.1
20260505163004 80 213 14.0 25.0 0.00 0.00 0.00 41 1009.2
20260505162004 81 230 12.0 23.0 0.00 0.00 0.00 41 1009.3
20260505161005 80 230 11.0 22.0 0.00 0.00 0.00 43 1009.4
20260505153004 79 232 10.0 20.0 0.00 0.00 0.00 45 1009.4
20260505152004 78 217 10.0 21.0 0.00 0.00 0.00 46 1009.5
20260505151004 78 225 12.0 22.0 0.00 0.00 0.00 47 1009.5
20260505125004 66 203 7.0 12.0 0.00 0.00 0.00 65 1010.6
20260505124004 65 202 5.0 9.0 0.00 0.00 0.00 66 1010.7
20260505123004 64 199 6.0 10.0 0.00 0.00 0.00 66 1010.6
20260505122004 63 221 3.0 9.0 0.00 0.00 0.00 70 1010.6
20260505121004 61 238 2.0 5.0 0.00 0.00 0.00 72 1010.5
20260505120025 60 232 1.0 4.0 0.00 0.00 0.00 73 1010.3
20260505115004 60 265 1.0 4.0 0.00 0.00 0.00 73 1010.3
20260505114005 59 277 1.0 2.0 0.00 0.00 0.00 75 1010.3
20260505113025 58 277 0.0 2.0 0.00 0.00 0.00 78 1010.1
20260505112025 57 277 0.0 2.0 0.00 0.00 0.00 80 1010.1
20260505111004 55 277 0.0 3.0 0.00 0.00 0.00 82 1010.1
20260505102025 55 160 0.0 2.0 0.00 0.00 0.00 77 1009.6
20260505101004 55 172 2.0 6.0 0.00 0.00 0.00 76 1009.4
20260505100004 55 166 3.0 4.0 0.00 0.00 0.00 79 1009.4
20260505095004 55 162 3.0 5.0 0.00 0.00 0.00 76 1009.4
20260505094004 55 162 2.0 5.0 0.00 0.00 0.00 76 1009.5
20260505093004 56 0 0.0 0.0 0.00 0.00 0.00 75 1009.5
20260505092004 57 0 0.0 0.0 0.00 0.00 0.00 73 1009.4
20260505091025 57 162 1.0 5.0 0.00 0.00 0.00 72 1009.3
20260505090025 57 171 4.0 7.0 0.00 0.00 0.00 72 1009.2
20260505085004 57 192 2.0 3.0 0.00 0.00 0.00 71 1009.2
20260505084025 57 192 2.0 3.0 0.00 0.00 0.00 71 1009.2
20260505083004 58 193 2.0 4.0 0.00 0.00 0.00 71 1009.1
20260505082004 58 195 1.0 3.0 0.00 0.00 0.00 70 1009.1
20260505081025 58 195 2.0 3.0 0.00 0.00 0.00 69 1009.0
20260505080025 59 195 2.0 3.0 0.00 0.00 0.00 69 1009.0
20260505075004 60 195 2.0 4.0 0.00 0.00 0.00 68 1009.0
20260505074004 60 183 3.0 5.0 0.00 0.00 0.00 68 1008.8
20260505073004 60 183 2.0 4.0 0.00 0.00 0.00 68 1008.7
20260505072025 60 183 0.0 3.0 0.00 0.00 0.00 67 1008.8
20260505071004 60 183 2.0 5.0 0.00 0.00 0.00 66 1008.8
20260505070004 61 183 2.0 4.0 0.00 0.00 0.00 65 1008.8
20260505065004 61 183 3.0 5.0 0.00 0.00 0.00 65 1008.8
20260505064004 61 182 3.0 6.0 0.00 0.00 0.00 65 1008.9
20260505063005 61 170 1.0 4.0 0.00 0.00 0.00 65 1009.1
20260505062005 62 166 2.0 3.0 0.00 0.00 0.00 63 1009.1
20260505061004 62 165 2.0 5.0 0.00 0.00 0.00 61 1009.1
20260505060025 62 167 3.0 6.0 0.00 0.00 0.00 60 1009.1
20260505055004 61 180 2.0 5.0 0.00 0.00 0.00 61 1009.1
20260505054025 61 194 2.0 5.0 0.00 0.00 0.00 62 1009.1
20260505053004 61 216 1.0 4.0 0.00 0.00 0.00 64 1009.2
20260505052025 60 218 3.0 7.0 0.00 0.00 0.00 64 1009.2
20260505051025 60 211 4.0 7.0 0.00 0.00 0.00 64 1009.1
20260505041004 61 185 3.0 4.0 0.00 0.00 0.00 59 1008.9
20260505040004 61 187 4.0 6.0 0.00 0.00 0.00 59 1008.8
20260505035005 61 211 2.0 5.0 0.00 0.00 0.00 58 1008.8
20260505034004 62 212 2.0 5.0 0.00 0.00 0.00 57 1008.8
20260505033025 62 205 3.0 5.0 0.00 0.00 0.00 56 1008.8
20260505032004 63 222 2.0 5.0 0.00 0.00 0.00 54 1008.8
20260505031004 64 194 3.0 5.0 0.00 0.00 0.00 53 1008.8
20260505030004 65 185 6.0 14.0 0.00 0.00 0.00 52 1008.7
20260505025004 65 171 7.0 17.0 0.00 0.00 0.00 51 1008.5
20260505024004 65 163 9.0 18.0 0.00 0.00 0.00 51 1008.4
20260505023004 65 160 9.0 17.0 0.00 0.00 0.00 51 1008.4
20260505022004 65 160 9.0 17.0 0.00 0.00 0.00 50 1008.3
20260505021004 65 164 10.0 16.0 0.00 0.00 0.00 50 1008.5
20260505020004 65 164 9.0 17.0 0.00 0.00 0.00 50 1008.5
20260505015004 65 160 9.0 16.0 0.00 0.00 0.00 50 1008.4
20260505014004 66 164 8.0 16.0 0.00 0.00 0.00 49 1008.6
20260505013004 66 167 6.0 12.0 0.00 0.00 0.00 49 1008.7
20260505012025 66 162 6.0 13.0 0.00 0.00 0.00 49 1008.6
20260505011003 66 162 6.0 12.0 0.00 0.00 0.00 48 1008.5
20260505010004 67 162 8.0 16.0 0.00 0.00 0.00 47 1008.3
20260505005004 67 163 9.0 16.0 0.00 0.00 0.00 47 1008.2
20260505004004 68 161 9.0 20.0 0.00 0.00 0.00 46 1008.1
20260505003004 68 162 9.0 17.0 0.00 0.00 0.00 46 1008.1
20260505002004 69 158 8.0 17.0 0.00 0.00 0.00 45 1008.0
20260505001004 70 154 7.0 14.0 0.00 0.00 0.00 43 1008.0
20260505000004 71 177 6.0 13.0 0.00 0.00 0.00 41 1007.9
20260504235004 71 187 7.0 13.0 0.00 0.00 0.00 42 1007.7
20260504234025 71 193 9.0 17.0 0.00 0.00 0.00 41 1007.7
20260504233025 72 195 11.0 20.0 0.00 0.00 0.00 41 1007.6
20260504232003 72 195 11.0 19.0 0.00 0.00 0.00 41 1007.6
20260504231004 72 196 11.0 19.0 0.00 0.00 0.00 40 1007.6
20260504230004 72 198 11.0 18.0 0.00 0.00 0.00 40 1007.7